Regional Weather Roundup
Issued by NWS

Home | Current Version | Previous Version | Text Only | Print | Product List | Glossary Off
Versions: 1 2 3 4 5 6 7 8 9 10 11 12 13 14 15 16 17 18 19 20 21 22 23 24 25 26 27 28 29 30 31 32 33 34 35 36 37 38 39 40 41 42 43 44 45 46 47 48 49 50

000
ASUS43 KLOT 220404
RWRIL

ILLINOIS REGIONAL WEATHER ROUNDUP
NATIONAL WEATHER SERVICE CHICAGO/ROMEOVILLE IL
1100 PM CDT SAT OCT 21 2017

NOTE: "FAIR" INDICATES FEW OR NO CLOUDS BELOW 12,000 FEET WITH NO
SIGNIFICANT WEATHER AND/OR OBSTRUCTIONS TO VISIBILITY.

* THESE STATIONS ARE NOT UNDER NWS QUALITY CONTROL. THEY ALSO MAY NOT
  REPORT WEATHER SUCH AS PRECIPITATION OR FOG.

ILZ001-002-007-009-015-016-024-220500-
NORTHWEST ILLINOIS

CITY           SKY/WX    TMP DP  RH WIND       PRES   REMARKS
MOLINE         CLEAR     72  58  61 S16G24    29.89R
STERLING*      MOCLDY    70  59  68 S9          N/A
SAVANNA*       MOCLDY    71  59  66 S15G21    29.91R
$$

ILZ003-004-008-010-011-017-018-220500-
NORTH CENTRAL ILLINOIS

CITY           SKY/WX    TMP DP  RH WIND       PRES   REMARKS
ROCKFORD       PTCLDY    68  58  70 S17       29.96R
FREEPORT*      MOCLDY    69  58  67 S17G23    29.94S
ROCHELLE*      MOCLDY    67  58  72 S15G23    29.96S
DE KALB*       CLOUDY    66  58  74 S16G23    29.99S
PERU*          CLOUDY    67  57  69 S14       29.98S
$$

ILZ005-006-012>014-019>023-220500-
NORTHEAST ILLINOIS

CITY           SKY/WX    TMP DP  RH WIND       PRES   REMARKS
CHICAGO-OHARE  CLOUDY    69  55  60 S18       30.00R
CHICAGO-MIDWAY PTCLDY    69  56  62 S14G24    30.01S
AURORA         CLOUDY    67  57  70 S12       30.01R
LANSING*       CLEAR     66  57  73 S16G22    30.03S
JOLIET*        CLEAR     68  57  68 S12G21    30.02R
WAUKEGAN       CLOUDY    69  58  67 S14       29.98S
DUPAGE AIRPORT CLOUDY    67  58  72 S17G28    30.00R
KANKAKEE*      CLEAR     66  54  65 S8        30.05R
WHEELING       PTCLDY    70  58  65 S15       30.01S
MORRIS*        PTCLDY    66  56  68 S14G22    30.00R
NORTHERLY ISL    N/A     68  55  63 S15         N/A
$$

LMZ740>746-220500-
SOUTHERN LAKE MICHIGAN

STATION/POSITION SKY/WX   TEMP    WIND        PRES    VSBY  WAVE
                          AIR SEA DIR/SP/G                  HT/PER
                          (F)     (DEG/KT/KT) (MB)    (MI)  (FT/S)
SOUTHERN BUOY              64 61  140/ 16/ 17 1016.1          3/ 4
WILMETTE HARBOR            64 59  150/ 12/ 16   N/A           2/ 3
HARRISON CRIB              68     180/ 24/ 25   N/A
BURNHAM HARBOR             68     180/ 11/ 17   N/A
CALUMET HARBOR             69     160/ 11/ 18 1015.7F
BURNS HARBOR               68     180/ 13/ 18 1017.6S
MICHIGAN CITY              67     160/ 11/ 14   N/A
MICHIGAN CITY 6N           65 58  180/ 14/ 19   N/A           2/ 3
ST. JOSEPH                 66 59  180/ 16/ 21 1017.6R         2/ 3
$$

ILZ025>027-034>036-040-047-049-050-058-095>099-220500-
WEST-CENTRAL ILLINOIS

CITY           SKY/WX    TMP DP  RH WIND       PRES   REMARKS
QUINCY         MOCLDY    73  61  65 S14       29.92S
MACOMB*        PTCLDY    69  58  69 S18       29.95S
JACKSONVILLE*  MOCLDY    71  58  63 S14G21    29.97S
PITTSFIELD*    CLOUDY    71  62  73 SE10      29.96S
$$

ILZ028>032-037-038-041>044-048-051>054-059>061-220500-
CENTRAL ILLINOIS

CITY           SKY/WX    TMP DP  RH WIND       PRES   REMARKS
PONTIAC        CLOUDY    67  58  72 S17       30.03R
BLOOMINGTON    MOCLDY    65  57  75 S24       30.02R
DECATUR        PTCLDY    66  56  70 S14       30.04R
PEORIA         MOCLDY    70  57  63 S20G29    29.97R
LACON*         CLOUDY    70  56  62 S14G20    29.97R
LINCOLN*       CLOUDY    69  58  67 S10G17    30.01R
SPRINGFIELD    CLOUDY    72  58  61 S15G22    30.00R
TAYLORVILLE    CLOUDY    68  56  66 S12       30.03R
$$

ILZ033-039-045-046-055>057-062-063-220500-
EAST-CENTRAL ILLINOIS

CITY           SKY/WX    TMP DP  RH WIND       PRES   REMARKS
CHAMPAIGN      CLEAR     67  53  61 S20       30.05S
DANVILLE*      CLEAR     65  51  59 S14G21    30.04S
RANTOUL*       CLEAR     64  56  73 S9        30.05S
MATTOON        CLEAR     66  56  70 S15       30.05S
PARIS*         PTCLDY    63  54  72 SE10      30.09S
$$

ILZ079-100>102-220500-
SOUTHWEST ILLINOIS

CITY           SKY/WX    TMP DP  RH WIND       PRES   REMARKS
ALTON          CLOUDY    70  61  72 SE8       30.02R
CAHOKIA*       MOCLDY    74  60  61 S13G18    30.00R
SPARTA*        CLEAR     70  60  70 S15       30.02F
$$

ILZ064>066-069>071-074>076-080>082-084>086-088>090-092>094-220500-
SOUTH-CENTRAL ILLINOIS

CITY           SKY/WX    TMP DP  RH WIND       PRES   REMARKS
CARBONDALE     CLEAR     70  61  73 S17G24    30.04S
CAIRO*         CLEAR     69  62  78 SE13      30.05F
EFFINGHAM*     CLEAR     67  56  69 SE12      30.07S
MARION         CLEAR     71  61  70 S10       30.06S
MT. VERNON     CLEAR     68  59  73 SE9       30.06S
CENTRALIA*     PTCLDY    70  60  71 SE12      30.03S
SALEM*         CLEAR     69  57  65 SE5       30.05S
METROPOLIS*    CLEAR     69  62  76 SE7       30.07F
$$

ILZ067-068-072-073-078-083-087-091-220500-
SOUTHEAST ILLINOIS

CITY           SKY/WX    TMP DP  RH WIND       PRES   REMARKS
LAWRENCEVILLE  CLEAR     62  54  74 SE8       30.11S
FLORA*         CLEAR     67  58  71 SE10      30.06F
FAIRFIELD*     CLEAR     69  58  68 SE8       30.06F
HARRISBURG*    CLEAR     68  60  77 S10       30.07F
ROBINSON*      CLEAR     62  54  73 S7        30.10F
CARMI*         CLEAR     65  58  78 SE9       30.08S
$$

ABBREVIATIONS USED IN REMARKS
   TC - TEMPERATURE IN CELSIUS
  WCI - WIND CHILL INDEX
   HX - HEAT INDEX
  VSB - VISIBILITY
$$




USA.gov is the U.S. government's official web portal to all federal, state and local government web resources and services.